Regional Weather Roundup
Issued by NWS

Home | Current Version | Previous Version | Text Only | Print | Product List | Glossary Off
Versions: 1 2 3 4 5 6 7 8 9 10 11 12 13 14 15 16 17 18 19 20 21 22 23 24 25 26 27 28 29 30 31 32 33 34 35 36 37 38 39 40 41 42 43 44 45 46 47 48 49 50

000
ASUS43 KMKX 181300
RWRWI

WISCONSIN REGIONAL WEATHER ROUNDUP
NATIONAL WEATHER SERVICE MILWAUKEE/SULLIVAN WI
700 AM CST THU DEC 18 2014

NOTE: "FAIR" INDICATES FEW OR NO CLOUDS BELOW 12,000 FEET WITH NO
SIGNIFICANT WEATHER AND/OR OBSTRUCTIONS TO VISIBILITY.

WIZ001-002-006>008-014>016-023>028-181400-
NORTHWEST WISCONSIN

CITY           SKY/WX    TMP DP  RH WIND       PRES   REMARKS
SUPERIOR ARPT  CLOUDY    21  19  93 SW3       30.32S
ASHLAND        CLOUDY    23  21  92 CALM      30.32R
HAYWARD        CLOUDY    21  17  84 E3        30.28S
SIREN          CLOUDY    19  16  89 CALM      30.29F
CUMBERLAND     CLOUDY    21  18  86 NE6       30.26F WCI  14
RICE LAKE      CLOUDY    22  19  86 NE5       30.29S WCI  16
CHETEK         CLOUDY    21  19  91 CALM      30.27F
LADYSMITH      CLOUDY    23  19  87 NE6       30.28F WCI  15
EAU CLAIRE     CLOUDY    22  18  85 NE6       30.27S WCI  14
MENOMONIE      CLOUDY    23  19  85 N5        30.28S WCI  16
NEW RICHMOND   CLOUDY    21  18  91 NE5       30.29S WCI  14
OSCEOLA        CLOUDY    19  17  90 CALM      30.32S
$$

WIZ003>005-009-010-017-018-181400-
NORTH CENTRAL WISCONSIN

CITY           SKY/WX    TMP DP  RH WIND       PRES   REMARKS
MANITOWISH WTR CLOUDY    19  17  94 NE5       30.25R WCI  12
ARBOR VITAE    CLOUDY    22  19  87 E3        30.24R
WOODRUFF       CLOUDY    22  19  87 E3        30.24R
RHINELANDER    CLOUDY    19  16  88 VRB3      30.24R
EAGLE RIVER    CLOUDY    20  17  87 NE9       30.23S WCI   9
LAND O LAKES   CLOUDY    21  18  89 NE5       30.25R WCI  14
PHILLIPS       CLOUDY    21  18  88 NE5       30.24S WCI  14
TOMAHAWK       CLOUDY    20  17  88 CALM      30.25S
MEDFORD        CLOUDY    21  19  89 N6        30.23S WCI  14
MERRILL        CLOUDY    23  20  87 NE5       30.25R WCI  17
$$

WIZ029-030-035-036-043>047-181400-
CENTRAL WISCONSIN

CITY           SKY/WX    TMP DP  RH WIND       PRES   REMARKS
WAUSAU         NOT AVBL
MOSINEE        CLOUDY    23  21  93 N6        30.25S WCI  16
MARSHFIELD     CLOUDY    23  19  86 NE6       30.24S WCI  16
STEVENS POINT  CLOUDY    23  19  84 N5        30.25S WCI  16
WAUPACA        CLOUDY    28  22  79 CALM      30.26S
WAUTOMA        NOT AVBL
WISC RAPIDS    NOT AVBL
CAMP DOUGLAS   NOT AVBL
$$

WIZ011>013-019>022-031-037>040-048>050-181400-
NORTHEAST WISCONSIN

CITY           SKY/WX    TMP DP  RH WIND       PRES   REMARKS
ANTIGO         CLOUDY    21  18  88 N8        30.22S WCI  12
SHAWANO        CLOUDY    27  21  76 NE7       30.27R WCI  20
OCONTO         CLOUDY    26  20  79 N7        30.27S WCI  18
STURGEON BAY   CLOUDY    27  19  74 N13       30.26S WCI  16
GREEN BAY      CLOUDY    27  21  78 N10       30.27R WCI  17
MANITOWOC      NOT AVBL
APPLETON       CLOUDY    27  21  80 N8        30.25S WCI  18
CLINTONVILLE   CLOUDY    28  21  74 NE3       30.26S
OSHKOSH        NOT AVBL
$$

WIZ032>034-041-042-053>061-181400-
SOUTHWEST WISCONSIN

CITY           SKY/WX    TMP DP  RH WIND       PRES   REMARKS
LA CROSSE      CLOUDY    22  15  75 CALM      30.30R
SPARTA         CLOUDY    21  17  83 CALM      30.28S
VIROQUA        CLOUDY    19  17  92 CALM      30.25R
BOSCOBEL       NOT AVBL
PRAIRIE DU CHI PTCLDY    15  12  88 CALM      30.31R
PLATTEVILLE    CLEAR     15  12  91 CALM      30.28S
$$

WIZ056-057-062-063-064-067-068-181400-
SOUTH CENTRAL WISCONSIN

CITY           SKY/WX    TMP DP  RH WIND       PRES   REMARKS
REEDSBURG      CLOUDY    22  17  81 CALM      30.26R
BARABOO/DELLS  CLOUDY    22  17  81 CALM      30.25R
LONE ROCK      NOT AVBL
MINERAL POINT  PTCLDY    16  14  93 CALM      30.25S
MADISON        NOT AVBL
MIDDLETON      CLOUDY    20  17  85 CALM      30.26R
WATERTOWN      CLOUDY    23  20  88 CALM      30.25R
MONROE         PTCLDY    18  14  86 W3        30.25R
JANESVILLE     CLEAR     18  14  86 W6        30.27  WCI   9
$$

WIZ051-052-058>065-066-070>072-181400-
SOUTHEAST WISCONSIN

CITY           SKY/WX    TMP DP  RH WIND       PRES   REMARKS
MILWAUKEE      PTCLDY    20  14  77 SW7       30.26R WCI  11
WAUKESHA       MOCLDY    19  18  93 W5        30.26R WCI  13
MILWAUKEE/TIMM CLOUDY    25  19  80 CALM      30.26R
RACINE         NOT AVBL
BURLINGTON     CLEAR     15  13  92 CALM      30.26R
KENOSHA        NOT AVBL
FOND DU LAC    CLOUDY    25  19  80 N7        30.25S WCI  17
SHEBOYGAN      CLOUDY    26  21  81 NW6       30.24S WCI  19
WEST BEND      CLOUDY    23  21  93 NW6       30.23F WCI  16
JUNEAU         CLOUDY    22  19  87 NW3       30.25S
$$

LSZ147-162-181400-
LAKE SUPERIOR

STATION/POSITION TIME  TEMP    WIND        PRES    WAVE
                       AIR SEA DIR/SP/G            HT/PER
                 (UTC) (F)     (DEG/KT/KT) (MB)    (FT/S)
DEVILS ISLAND    1200   27      70/  6/  7 1027.8F
PORT WING        1240   25     160/  2/  3 1026.8S
SAXON HARBOR     1200   23      CALM  /  4 1026.1F
$$

LMZ867-665-643>646-181400-
LAKE MICHIGAN

STATION/POSITION TIME  TEMP    WIND        PRES    WAVE
                       AIR SEA DIR/SP/G            HT/PER
                 (UTC) (F)     (DEG/KT/KT) (MB)    (FT/S)
CHAMBERS ISLAND  1200   28     330/ 15/ 20 1024.4R
NORTHPORT PIER   1200   27      30/ 12/ 19 1024.0S
SISTER BAY       1113           30/ 18/ 22   N/A
ALGOMA LAKESHORE 1214          350/  6/  8   N/A
KEWAUNEE LAKESHO 1200   27     350/  5/  8 1023.4R
SHEBOYGAN LAKESH 1200   26 34  300/  9/ 11 1025.2F
PORT WASHINGTON  1200   25     300/  7/  8 1025.1F
MILWAUKEE LAKESH 1200   23     320/  9/ 11   N/A
KENOSHA   LAKESH 1200   19     260/  9/ 10 1024.4S
$$

TC  - TEMPERATURE IN CELSIUS
VSB - VISIBILITY IN STATUTE MILES
WCI - WIND CHILL INDEX
HX  - HEAT INDEX




USA.gov is the U.S. government's official web portal to all federal, state and local government web resources and services.